Showing default

COSMOS 886, 9634

Orbit data source: Space-Track

COSMOS 886, 9634 is a payload satellite owned by PKO (CIS) in LEO that was launched on Mon, 27 Dec 1976 UTC via a TSIKLON-2 launch vehicle from the Tyuratam Missile And Space Complex (TTMTR). Payload-class satellites include a variety of spacecraft equipped with specific instruments for various scientific and technological missions. These include communications satellites like Starlink; space stations such as the ISS; scientific satellites like the Hubble; Earth observation satellites from companies like Planet Labs, Umbra, and HawkEye 360; GPS; miniature CubeSats for education and research; and military/defense satellites.

Loading next visibility...
Identifier
9634, 1976-126A
Orbit
LEO
Country
Flag of CISCIS
Related business
Manufacturer
Kometa
Mission
Spacecraft
Bus & Motor
IS, Unknown motor
Mass
1,400 kg wet, ~1,400 kg dry
Launch date (UTC)
1976-12-27 (49 years ago)
Launch vehicle
TSIKLON-2
Launch site
Tyuratam Missile And Space Complex (TTMTR)
Object type
Payload
Rocket body
Debris
Shape & HBR
Unknown
Radar Cross Section
Large (>1 m²)

Expand to show TLE details & history
Last TLE update: 12 hours ago

TLE from 12 hours ago
0 COSMOS 886
1 09634U 76126A   26175.06311465 -.00000065  00000-0  43807-5 0  9990
2 09634  65.8366  58.9526 1092544 254.7240  93.0616 12.56617548281070
Epoch: 2026-06-24T01:30Z
TLE epoch observation values (Epoch: 2026-06-24T01:30:53.105Z)
Latitude
0.00002°
Longitude
124.00563°
Altitude
1,575.921 km
Speed
7.018 km/s
True Right ascension
03h 55m 48s
True Declination
0° 00' 00"
Sunlit
Object was in daylight at epoch
Visualization orbit readout
Latitude
Unknown
Longitude
Unknown
Altitude
Unknown
Speed
Unknown
Apparent Right ascension
Unknown
Apparent Declination
Unknown
Sunlit
N/A
Visualization observer readout
Local Sidereal Time
00:17:26
Azimuth
Unknown
Elevation
Unknown
Doppler factor
Unknown
Orbital elements
Apogee altitude
2,289.191 km
Perigee altitude
581.839 km
Semi-major axis
7,813.652 km
Eccentricity
0.10925
Inclination
65.8366°
RAAN
58.9526°
Arg. of periapsis
254.724°
True anomaly
105.3774°
Mean anomaly
93.0616°
Eccentric anomaly
99.24019°
Mean motion
3.1424 °/min
Orbital period
114.56 mins
BSTAR
0.0000043807
Loading maneuver chart data...
Computing Atmospheric mass density...
Loading historical data...
Loading historical data...
Loading historical data...
Loading historical data...
Loading historical data...
Loading historical data...
Loading historical data...

Documentation

Showing up to 5 results
|